Theta_e
307 308 308 308 308 308 308 308 308 307 307 307 308 310 311 312 312 315 317 321 322 321 319 319 319 320 319 317 315 321 333 337 337 338 342 340 347 342 339 342 340 340 339 337 336
307 308 308 308 308 308 309 309 309 308 309 309 310 312 312 312 315 318 320 324 325 321 319 317 316 316 316 317 315 325 333 336 338 337 343 343 344 346 341 341 341 340 336 335 334
308 308 308 309 309 310 310 311 311 311 311 312 312 312 311 313 319 324 321 322 324 321 319 319 319 319 321 335 339 337 336 339 339 340 342 342 341 342 341 342 340 339 337 334 332
308 308 308 309 309 310 310 311 311 311 311 312 312 311 313 320 321 323 320 324 322 320 318 317 317 336 339 340 341 345 341 340 340 341 342 342 339 340 339 339 335 334 333 331 330
308 309 308 309 310 311 311 311 311 311 311 312 312 312 317 317 319 323 317 318 318 318 318 319 331 335 341 339 339 343 342 340 339 337 337 337 339 339 339 335 333 332 330 329 328
309 310 309 310 311 311 312 312 312 313 312 312 312 314 318 319 322 321 317 317 317 318 319 319 324 335 334 335 341 341 341 340 339 338 337 339 338 337 335 333 332 330 328 327 327
310 311 310 310 310 311 311 311 312 312 312 312 313 315 317 317 322 325 318 320 320 320 319 332 334 329 332 341 338 340 343 341 340 338 338 336 339 338 334 332 332 330 327 326 326
311 311 311 310 310 311 311 311 312 312 312 312 313 318 319 321 325 326 320 319 320 320 320 327 328 324 334 337 338 343 339 346 342 339 338 336 343 338 333 333 331 328 326 325 324
311 312 311 310 310 311 312 313 314 313 313 316 319 320 320 324 324 324 321 321 320 319 319 318 316 326 329 331 328 332 334 345 347 334 339 337 340 336 333 333 332 327 324 324 323
311 312 312 311 311 312 313 315 319 317 320 321 321 320 322 323 324 320 322 322 320 319 318 317 312 312 318 315 317 324 336 337 338 338 337 338 336 332 331 332 330 326 324 323 323
312 313 312 312 312 313 313 316 320 320 322 323 321 322 321 324 321 320 320 319 319 317 319 317 318 319 316 316 327 334 336 340 337 333 337 334 334 332 331 331 328 325 325 324 323
313 313 312 312 313 313 315 318 323 320 321 320 322 321 323 324 323 320 321 320 320 320 319 317 319 320 324 332 336 337 338 338 333 331 333 334 334 334 334 333 328 328 327 325 324
313 313 313 313 314 317 318 319 322 317 320 322 323 325 325 324 324 322 319 318 319 320 319 318 320 321 327 329 332 333 337 336 335 333 332 335 337 337 335 333 332 331 327 324 324
313 313 312 313 318 314 318 318 315 319 323 322 325 323 320 321 322 321 319 321 321 322 321 326 325 324 324 325 323 326 332 336 336 335 340 334 340 336 332 333 334 332 328 325 324
313 312 312 313 313 313 317 316 319 323 323 326 327 321 319 322 322 324 321 324 328 328 326 329 327 327 326 327 323 330 333 335 333 333 334 336 338 337 332 336 334 331 328 324 322
311 311 311 313 315 317 316 319 325 328 329 329 328 321 322 318 321 326 327 324 325 326 327 328 328 328 325 322 328 331 327 326 319 327 335 334 332 332 335 333 332 329 326 324 321
310 310 311 312 314 316 315 323 327 329 329 331 329 320 324 330 330 329 329 328 327 327 327 328 328 328 327 327 328 321 319 325 324 330 335 331 330 328 328 330 330 328 325 322 316
311 310 311 312 313 313 322 324 332 331 333 332 331 321 325 331 331 331 332 331 328 325 326 329 330 327 326 326 325 322 320 324 329 328 334 331 335 331 330 328 326 324 320 312 309
314 316 316 319 316 319 320 327 330 331 332 330 329 329 329 329 332 331 329 330 330 327 331 329 330 327 323 322 323 324 324 320 328 329 331 332 334 333 329 327 324 321 316 310 308
320 321 323 321 323 322 320 325 327 327 330 328 329 328 331 330 332 331 328 327 330 326 326 330 328 327 327 322 320 322 320 323 322 334 335 332 331 330 333 328 324 321 315 309 306
324 321 323 325 322 315 320 321 325 326 327 327 327 327 326 331 331 330 328 327 326 328 324 323 323 325 324 325 323 321 321 321 322 324 330 331 329 322 329 327 325 320 313 308 306
323 323 323 321 317 314 319 321 323 324 322 324 323 326 326 329 328 327 328 327 326 325 324 326 323 328 327 323 320 320 321 318 324 329 324 323 324 319 323 325 323 318 310 308 306
322 323 326 319 319 323 322 325 325 325 326 326 328 327 326 327 328 328 328 326 326 327 326 324 320 326 324 322 320 321 320 320 319 320 325 326 323 320 320 316 312 309 309 308 307
320 319 319 316 316 323 324 323 326 326 326 325 325 325 326 326 324 327 327 327 327 328 331 325 322 322 325 324 321 325 324 323 320 322 326 326 325 323 320 314 309 309 308 309 308
319 325 324 322 320 321 322 325 328 329 325 322 324 324 326 327 324 325 327 325 327 328 324 321 324 322 320 321 322 322 322 322 325 325 324 325 326 320 318 313 309 309 309 309 308
325 326 322 324 319 324 323 328 330 329 326 325 323 322 321 323 323 323 323 324 330 326 324 320 325 323 326 325 325 324 322 321 321 319 319 319 321 313 311 309 309 310 310 310 309
323 326 323 323 326 324 326 328 329 326 324 325 325 323 321 324 320 320 322 323 324 326 323 324 325 326 328 329 328 329 327 321 321 320 318 320 318 313 313 311 309 309 309 310 309
Wind_Speed
12 12 11 11 11 10 10 10 10 11 11 12 13 14 17 21 22 8 4 3 4 5 5 7 6 5 4 3 3 3 4 2 2 4 5 2 5 12 10 14 9 8 9 12 12
13 12 11 10 9 9 9 9 10 11 11 11 12 14 18 22 14 5 1 4 3 4 4 6 5 8 3 3 2 5 4 5 1 4 8 9 10 9 7 11 10 11 15 17 15
12 12 9 9 8 8 9 10 10 11 10 11 13 15 17 15 2 2 4 6 6 3 3 1 4 3 5 4 4 3 3 4 12 17 14 13 18 4 12 8 8 8 12 14 17
11 10 9 9 8 8 9 10 11 10 11 11 12 14 16 3 4 2 3 5 6 3 4 4 4 4 5 5 3 7 13 8 5 8 6 7 9 12 13 8 11 11 12 13 14
12 10 9 8 7 8 9 9 10 9 10 10 10 13 4 3 5 4 1 5 4 2 2 2 5 5 6 6 5 8 6 13 17 22 19 18 16 10 10 11 13 13 14 12 14
11 9 7 7 7 7 8 8 9 8 8 8 8 10 3 3 2 4 2 4 3 1 7 3 5 5 8 7 9 11 15 11 9 12 9 11 6 4 8 10 10 10 9 10 11
9 8 6 7 7 7 7 8 8 7 7 6 7 6 3 6 0 5 3 2 1 4 1 6 10 6 5 10 6 10 13 10 6 6 9 10 6 6 10 8 9 8 7 7 8
9 8 6 7 6 7 7 7 7 7 5 5 6 3 4 2 6 7 7 5 3 3 4 12 10 9 7 10 5 6 4 5 2 2 4 0 4 9 7 8 8 6 4 4 4
8 7 6 6 6 7 8 7 8 8 6 5 1 2 7 5 2 4 8 4 3 4 1 11 5 6 4 6 5 2 4 6 4 2 2 1 5 7 2 6 6 4 4 2 1
8 7 5 6 6 7 8 9 7 4 1 1 1 2 4 4 2 3 5 8 2 2 4 4 5 5 3 3 5 7 7 4 4 4 6 7 9 3 2 6 5 5 3 2 3
7 6 4 6 6 7 10 4 5 3 1 4 4 4 4 7 1 2 3 4 1 6 2 3 5 3 11 6 5 10 9 11 5 4 7 6 5 4 2 4 4 4 3 3 3
6 5 4 6 7 9 7 3 5 3 6 5 3 6 9 3 3 3 5 2 2 3 1 6 2 4 11 14 17 16 19 8 5 4 6 3 4 2 2 2 5 5 4 4 3
5 5 5 5 9 4 3 1 3 10 2 7 5 4 3 7 4 5 7 2 3 3 3 3 4 1 9 9 9 5 7 12 9 8 6 8 2 2 1 4 5 5 3 3 3
4 6 5 5 2 6 2 4 20 4 4 6 4 3 3 3 2 1 2 3 3 5 6 6 5 7 6 5 4 0 10 14 19 7 5 4 2 4 4 4 5 4 1 4 3
4 6 4 3 6 3 5 19 6 3 4 5 7 3 2 4 2 9 5 6 3 2 6 2 3 5 6 2 4 3 13 13 9 5 6 2 1 3 4 4 4 5 5 5 2
3 4 3 3 5 6 14 14 1 5 1 5 4 3 3 7 7 5 7 9 3 6 5 2 2 3 3 5 13 19 14 7 5 3 2 3 3 2 3 4 1 2 4 4 3
2 3 3 3 1 8 18 3 5 4 4 5 2 4 5 6 6 7 6 7 3 3 5 6 4 5 3 10 11 7 6 3 3 2 3 2 3 5 4 4 4 7 7 2 4
1 2 4 9 6 11 7 6 2 2 4 4 4 4 5 3 6 7 4 5 6 4 3 3 5 7 6 1 6 2 5 5 4 3 3 2 3 3 1 5 4 5 5 6 6
0 1 3 3 1 2 5 3 5 3 3 2 3 6 6 5 4 5 5 4 5 5 4 3 2 3 6 3 1 2 4 3 7 3 3 2 1 2 4 3 3 6 6 6 5
1 1 2 3 5 4 5 4 3 4 3 5 5 3 4 6 4 5 6 3 5 7 0 1 3 3 5 5 7 6 4 2 3 4 2 2 3 4 4 5 5 6 7 6 4
1 3 8 7 2 5 2 4 4 4 3 6 3 5 5 3 4 3 3 2 4 5 7 2 3 5 3 6 3 5 4 6 5 3 4 2 4 4 8 10 10 7 7 7 6
3 3 4 3 4 1 1 4 5 6 6 6 5 4 4 5 5 3 3 2 8 3 3 3 4 2 2 5 3 4 3 3 4 1 2 3 4 5 7 8 6 6 7 7 5
3 1 4 3 2 2 4 2 5 8 7 5 7 6 4 3 4 2 0 1 7 5 2 2 4 3 6 6 6 6 4 3 5 3 2 3 4 3 5 6 5 7 8 6 4
3 3 4 4 0 4 3 4 5 5 5 6 4 5 5 8 7 3 3 3 4 3 8 7 3 3 5 3 2 6 6 4 5 4 2 2 4 3 3 4 4 7 7 5 3
4 1 2 1 4 2 4 3 3 6 5 9 6 6 2 4 4 4 5 7 4 6 5 5 5 4 8 10 14 9 8 9 6 2 3 2 1 4 4 5 4 6 5 4 3
4 4 3 2 2 2 5 5 4 2 5 5 8 3 5 5 2 1 2 4 2 6 5 5 2 2 7 9 14 12 9 7 6 4 4 5 2 3 2 5 5 5 4 3 3
3 3 4 4 4 4 1 2 1 3 7 4 4 4 8 4 4 5 9 6 3 2 4 4 3 4 2 5 2 6 5 3 3 4 3 4 3 2 1 2 4 4 3 3 1
Wind_Direction
335 327 316 309 307 312 319 323 325 322 323 329 327 326 324 321 324 315 248 115 125 137 145 137 160 151 131 68 83 111 73 212 101 119 105 55 82 56 82 74 55 50 74 91 77
334 322 316 308 310 317 322 326 329 326 325 328 326 326 322 323 325 274 159 173 167 169 172 181 151 152 75 91 38 85 116 166 111 105 88 82 92 116 101 90 81 83 77 80 77
322 312 312 311 319 325 330 333 333 322 325 328 327 325 321 325 335 272 2 219 213 221 256 222 118 95 71 61 22 65 87 97 65 104 94 88 57 68 114 70 64 90 86 77 67
314 326 322 318 324 331 332 334 321 320 322 324 328 325 327 331 97 345 13 144 192 236 292 117 89 76 83 78 29 97 34 68 83 67 79 75 84 72 72 92 99 91 95 85 66
327 332 318 316 334 337 337 332 319 319 322 326 331 335 348 7 260 352 138 148 176 196 319 21 94 119 96 91 82 67 83 68 94 89 86 93 81 98 103 104 96 97 93 88 86
323 323 318 325 335 334 331 324 316 320 319 328 332 347 30 27 357 12 167 180 152 71 352 26 132 128 83 58 52 104 91 91 81 80 62 100 113 75 85 92 85 79 77 81 83
324 330 324 323 329 326 319 309 312 306 308 323 337 348 71 222 355 349 235 265 121 150 99 130 114 64 106 96 123 103 92 64 19 88 119 110 46 76 98 107 96 85 98 95 86
334 324 320 317 327 317 308 309 301 291 304 313 330 344 249 247 302 281 236 280 257 223 199 178 106 96 91 118 60 82 61 97 249 301 193 133 143 119 127 114 107 114 118 106 112
325 316 319 323 319 315 318 312 295 291 295 300 9 41 286 301 278 248 217 259 287 137 225 140 97 95 62 95 77 297 140 138 172 317 133 39 144 115 126 131 139 129 116 124 156
320 318 328 315 307 333 329 317 290 284 301 42 40 9 288 305 335 177 218 236 306 6 82 81 66 94 57 112 212 180 124 60 94 357 78 80 95 87 359 148 125 123 124 196 236
317 312 315 295 327 340 337 331 9 5 150 214 232 257 285 310 268 196 187 130 115 47 91 8 78 186 196 195 95 98 89 113 125 86 96 86 104 116 274 100 126 154 177 211 260
305 296 291 304 337 336 350 76 107 307 313 234 235 275 270 265 14 272 166 135 62 22 45 25 1 289 87 111 107 107 118 115 44 66 89 106 99 204 208 149 194 173 204 215 255
295 280 284 322 332 18 353 202 167 342 100 304 204 207 207 148 210 256 143 125 93 354 11 129 281 123 120 131 123 170 128 162 142 113 66 142 104 122 314 159 183 168 165 200 255
282 264 288 325 68 344 345 1 320 169 66 295 337 306 124 170 356 331 187 133 64 137 115 80 338 95 75 79 91 264 137 140 140 138 157 180 197 211 180 256 187 194 173 203 232
275 263 297 319 323 324 341 333 349 129 82 289 296 309 76 107 304 356 33 37 45 115 112 137 73 73 74 266 129 113 125 129 112 85 107 214 232 137 116 252 243 195 213 213 225
262 255 290 312 292 310 334 335 125 40 15 334 297 12 29 15 15 352 31 37 75 63 42 83 39 80 177 50 109 123 92 48 40 74 70 193 159 253 182 218 131 153 214 207 221
258 234 254 264 308 336 335 47 34 98 346 312 285 73 99 13 37 26 46 30 54 76 14 6 356 327 81 94 130 80 117 77 312 6 215 182 105 243 233 239 182 180 215 191 92
270 229 240 250 283 318 352 47 75 259 251 310 358 71 80 63 17 9 73 27 9 43 87 94 344 357 345 106 177 173 157 155 241 197 204 22 208 246 2 97 125 150 103 93 89
18 306 280 341 78 175 68 59 209 218 273 0 42 60 17 12 111 65 43 18 1 5 111 106 145 266 51 30 78 163 52 141 101 43 90 229 180 341 89 93 126 143 127 126 116
39 338 6 99 108 58 71 242 255 225 349 59 95 39 69 353 60 60 14 329 323 32 149 125 105 2 322 31 28 92 147 41 25 140 164 263 288 234 196 212 210 196 167 146 124
105 61 352 159 67 48 141 235 279 306 131 77 72 57 75 49 50 54 338 315 3 340 60 51 80 309 48 26 320 357 20 57 111 96 151 166 265 220 203 201 211 203 157 148 150
99 62 9 127 51 31 169 197 317 2 14 63 85 73 69 43 47 71 57 322 337 318 56 12 124 87 127 312 64 69 58 91 112 199 57 123 282 335 235 214 197 136 138 144 163
91 210 33 156 115 298 299 56 63 30 16 51 34 47 41 74 91 72 57 15 10 46 75 143 16 58 358 355 9 51 14 92 92 82 44 95 284 356 51 58 49 116 134 142 152
87 50 339 52 103 142 96 16 100 44 57 61 76 52 64 31 16 67 19 342 14 56 51 84 62 150 186 193 145 66 17 33 84 68 178 228 293 315 23 80 106 135 136 154 166
31 196 188 343 7 79 76 347 53 29 43 28 36 30 74 62 21 28 3 359 351 13 41 83 48 44 48 79 78 71 55 43 60 150 96 288 292 338 320 167 161 134 147 162 188
118 127 29 53 289 119 25 13 87 76 40 0 97 37 53 90 65 80 7 33 28 334 56 20 121 29 52 77 74 61 40 45 33 22 56 18 345 281 32 112 134 155 174 194 224
89 91 101 315 4 64 328 136 116 129 36 67 156 80 44 2 80 106 96 87 71 49 63 64 95 30 202 326 327 34 1 35 59 29 350 32 307 190 42 133 158 188 207 254 243